Location: Napoli
(40.8639°N, 14.2562°E)
Time: 06:57:44
(UTC+02:00)

ISS - Visible Passes

Search period start: 15 April 2024 00:00
Search period end: 25 April 2024 00:00
Orbit: 413 x 419 km, 51.6° (Epoch: 14 April)

Date Brightness Start Highest point End Pass type
(mag) Time Alt. Az. Time Alt. Az. Time Alt. Az.
18 Apr -1.0 05:34:51 10° SSE 05:36:38 14° SE 05:38:25 10° E visible
20 Apr -2.6 05:32:31 10° SSW 05:35:38 38° SE 05:38:45 10° ENE visible
21 Apr -1.8 04:45:23 16° S 04:47:00 22° SE 04:49:38 10° E visible
22 Apr -1.1 03:58:39 12° SE 03:58:39 12° SE 03:59:52 10° ESE visible
22 Apr -3.7 05:31:32 11° WSW 05:34:41 73° NW 05:38:01 10° NE visible
23 Apr -3.6 04:44:41 35° SSW 04:45:52 63° SE 04:49:10 10° ENE visible
24 Apr -2.3 03:57:43 31° ESE 03:57:43 31° ESE 04:00:08 10° ENE visible
24 Apr -2.5 05:30:46 10° W 05:33:47 31° NNW 05:36:50 10° NE visible
